Location: Pedimozza
(42.0500°N, 9.3500°E)
Time: 03:38:01
(UTC+00:00)

Cosmos 2074 Rocket - Pass Details

Date: 19 August 2019
Orbit: 967 x 986 km, 82.9° (Epoch: 19 September)

Event Time Altitude Azimuth Distance (km) Brightness Sun altitude
Rises 21:17:21 0° 355° (N) 3,704 7.9 -27.8°
Reaches altitude 10° 21:19:56 10° 359° (N) 2,751 7.0 -28.1°
Enters shadow 21:26:01 62° 72° (ENE) 1,100 4.1 -28.7°
